Tracking 30918 objects as of 2-Jul-2025
HD Live streaming from Space Station
objects crossing your sky now

STARLINK-4614

Track STARLINK-4614 now!
10-day predictions
STARLINK-4614 is classified as:


NORAD ID: 53741
Int'l Code: 2022-107AT
Perigee: 362.6 km
Apogee: 364.4 km
Inclination: 53.2 °
Period: 91.7 minutes
Semi major axis: 6734 km
RCS: Unknown
Launch date: September 5, 2022
Source: United States (US)
Launch site: AIR FORCE EASTERN TEST RANGE (AFETR)
Your satellite tracking list
SL-16 DEB
Track 1 satellite(s)




NASA's NSSDC Master Catalog

Two Line Element Set (TLE):
1 53741U 22107AT  25183.25002315  .00507672  00000-0  37585-2 0  9996
2 53741  53.2161 277.0947 0001321  68.2764  92.6601 15.70873441156440
Source of the keplerian elements: AFSPC